Time,TemperatureF,DewpointF,PressureIn,WindDirection,WindDirectionDegrees,WindSpeedMPH,WindSpeedGustMPH,Humidity,HourlyPrecipIn,Conditions,Clouds,dailyrainin,SoftwareType,DateUTC
2013-03-13 00:00:00,49.0,-99.9,-100.00,WNW,283,3.0,4.0,-999,-99.99,,,-99.99,,2013-03-13 07:00:00,
2013-03-13 00:33:00,50.0,-99.9,-100.00,West,272,4.0,7.0,-999,-99.99,,,-99.99,,2013-03-13 07:33:00,
2013-03-13 00:43:00,50.0,-99.9,-100.00,West,272,4.0,7.0,-999,-99.99,,,-99.99,,2013-03-13 07:43:00,
2013-03-13 00:53:00,49.0,-99.9,-100.00,WNW,283,3.0,4.0,-999,-99.99,,,-99.99,,2013-03-13 07:53:00,
2013-03-13 01:00:00,50.0,-99.9,-100.00,West,265,3.0,5.0,-999,-99.99,,,-99.99,,2013-03-13 08:00:00,
2013-03-13 01:33:00,50.0,-99.9,-100.00,West,265,3.0,5.0,-999,-99.99,,,-99.99,,2013-03-13 08:33:00,
2013-03-13 01:43:00,50.0,-99.9,-100.00,West,265,3.0,5.0,-999,-99.99,,,-99.99,,2013-03-13 08:43:00,
2013-03-13 01:54:00,50.0,-99.9,-100.00,West,265,3.0,5.0,-999,-99.99,,,-99.99,,2013-03-13 08:54:00,
2013-03-13 02:00:00,48.0,-99.9,-100.00,SW,221,4.0,7.0,-999,-99.99,,,-99.99,,2013-03-13 09:00:00,
2013-03-13 02:23:00,48.0,-99.9,-100.00,WSW,239,3.0,3.0,-999,-99.99,,,-99.99,,2013-03-13 09:23:00,
2013-03-13 02:32:00,48.0,-99.9,-100.00,SW,215,7.0,7.0,-999,-99.99,,,-99.99,,2013-03-13 09:32:00,
2013-03-13 02:42:00,48.0,-99.9,-100.00,SW,215,7.0,7.0,-999,-99.99,,,-99.99,,2013-03-13 09:42:00,
2013-03-13 02:53:00,48.0,-99.9,-100.00,SW,221,4.0,7.0,-999,-99.99,,,-99.99,,2013-03-13 09:53:00,
2013-03-13 03:20:00,48.0,-99.9,-100.00,West,262,2.0,2.0,-999,-99.99,,,-99.99,,2013-03-13 10:20:00,
2013-03-13 03:22:00,47.0,-99.9,-100.00,WSW,246,1.0,4.0,-999,-99.99,,,-99.99,,2013-03-13 10:22:00,
2013-03-13 03:32:00,48.0,-99.9,-100.00,WSW,255,2.0,2.0,-999,-99.99,,,-99.99,,2013-03-13 10:32:00,
2013-03-13 03:42:00,48.0,-99.9,-100.00,WSW,255,2.0,2.0,-999,-99.99,,,-99.99,,2013-03-13 10:42:00,
2013-03-13 03:52:00,48.0,-99.9,-100.00,WSW,255,2.0,2.0,-999,-99.99,,,-99.99,,2013-03-13 10:52:00,
2013-03-13 04:00:00,47.0,-99.9,-100.00,SSW,207,2.0,5.0,-999,-99.99,,,-99.99,,2013-03-13 11:00:00,
2013-03-13 04:02:00,48.0,-99.9,-100.00,West,262,2.0,2.0,-999,-99.99,,,-99.99,,2013-03-13 11:02:00,
2013-03-13 04:13:00,48.0,-99.9,-100.00,West,262,2.0,2.0,-999,-99.99,,,-99.99,,2013-03-13 11:13:00,
2013-03-13 04:32:00,47.0,-99.9,-100.00,SSW,207,2.0,5.0,-999,-99.99,,,-99.99,,2013-03-13 11:32:00,
2013-03-13 04:42:00,47.0,-99.9,-100.00,SSW,207,2.0,5.0,-999,-99.99,,,-99.99,,2013-03-13 11:42:00,
2013-03-13 04:53:00,47.0,-99.9,-100.00,SSW,207,2.0,5.0,-999,-99.99,,,-99.99,,2013-03-13 11:53:00,
2013-03-13 05:22:00,47.0,-99.9,-100.00,SSW,199,0.0,2.0,-999,-99.99,,,-99.99,,2013-03-13 12:22:00,
2013-03-13 05:33:00,46.0,-99.9,-100.00,WNW,286,5.0,5.0,-999,-99.99,,,-99.99,,2013-03-13 12:33:00,
2013-03-13 05:42:00,46.0,-99.9,-100.00,WNW,286,5.0,5.0,-999,-99.99,,,-99.99,,2013-03-13 12:42:00,
2013-03-13 05:53:00,47.0,-99.9,-100.00,West,279,2.0,5.0,-999,-99.99,,,-99.99,,2013-03-13 12:53:00,
2013-03-13 06:00:00,47.0,-99.9,-100.00,East,82,1.0,2.0,-999,-99.99,,,-99.99,,2013-03-13 13:00:00,
2013-03-13 06:02:00,47.0,-99.9,-100.00,West,279,2.0,5.0,-999,-99.99,,,-99.99,,2013-03-13 13:02:00,
2013-03-13 06:33:00,47.0,-99.9,-100.00,East,82,1.0,2.0,-999,-99.99,,,-99.99,,2013-03-13 13:33:00,
2013-03-13 06:44:00,47.0,-99.9,-100.00,East,82,1.0,2.0,-999,-99.99,,,-99.99,,2013-03-13 13:44:00,
2013-03-13 06:53:00,47.0,-99.9,-100.00,East,82,1.0,2.0,-999,-99.99,,,-99.99,,2013-03-13 13:53:00,
2013-03-13 07:00:00,48.0,-99.9,-100.00,SSE,151,2.0,2.0,-999,-99.99,,,-99.99,,2013-03-13 14:00:00,
2013-03-13 07:34:00,47.0,-99.9,-100.00,SSE,166,2.0,2.0,-999,-99.99,,,-99.99,,2013-03-13 14:34:00,
2013-03-13 07:43:00,47.0,-99.9,-100.00,SSE,166,2.0,2.0,-999,-99.99,,,-99.99,,2013-03-13 14:43:00,
2013-03-13 07:53:00,48.0,-99.9,-100.00,SSE,151,2.0,2.0,-999,-99.99,,,-99.99,,2013-03-13 14:53:00,
2013-03-13 08:33:00,45.0,-99.9,-100.00,SW,235,3.0,6.0,-999,-99.99,,,-99.99,,2013-03-13 15:33:00,
2013-03-13 08:43:00,45.0,-99.9,-100.00,SW,235,3.0,6.0,-999,-99.99,,,-99.99,,2013-03-13 15:43:00,
2013-03-13 08:53:00,45.0,-99.9,-100.00,SW,235,3.0,6.0,-999,-99.99,,,-99.99,,2013-03-13 15:53:00,
2013-03-13 09:03:00,46.0,-99.9,-100.00,WSW,241,5.0,5.0,-999,-99.99,,,-99.99,,2013-03-13 16:03:00,
2013-03-13 09:13:00,46.0,-99.9,-100.00,WSW,241,5.0,5.0,-999,-99.99,,,-99.99,,2013-03-13 16:13:00,
2013-03-13 09:33:00,47.0,-99.9,-100.00,WSW,250,1.0,6.0,-999,-99.99,,,-99.99,,2013-03-13 16:33:00,
2013-03-13 09:42:00,47.0,-99.9,-100.00,WSW,250,1.0,6.0,-999,-99.99,,,-99.99,,2013-03-13 16:42:00,
2013-03-13 09:52:00,47.0,-99.9,-100.00,WSW,250,1.0,6.0,-999,-99.99,,,-99.99,,2013-03-13 16:52:00,
2013-03-13 10:00:00,52.0,-99.9,-100.00,WSW,238,3.0,4.0,-999,-99.99,,,-99.99,,2013-03-13 17:00:00,
2013-03-13 10:03:00,51.0,-99.9,-100.00,South,182,4.0,6.0,-999,-99.99,,,-99.99,,2013-03-13 17:03:00,
2013-03-13 10:12:00,51.0,-99.9,-100.00,South,182,4.0,6.0,-999,-99.99,,,-99.99,,2013-03-13 17:12:00,
2013-03-13 10:23:00,51.0,-99.9,-100.00,South,182,4.0,6.0,-999,-99.99,,,-99.99,,2013-03-13 17:23:00,
2013-03-13 10:33:00,52.0,-99.9,-100.00,WSW,238,3.0,4.0,-999,-99.99,,,-99.99,,2013-03-13 17:33:00,
2013-03-13 10:43:00,52.0,-99.9,-100.00,WSW,238,3.0,4.0,-999,-99.99,,,-99.99,,2013-03-13 17:43:00,
2013-03-13 10:54:00,52.0,-99.9,-100.00,WSW,238,3.0,4.0,-999,-99.99,,,-99.99,,2013-03-13 17:54:00,
2013-03-13 11:34:00,51.0,-99.9,-100.00,WSW,252,4.0,5.0,-999,-99.99,,,-99.99,,2013-03-13 18:34:00,
2013-03-13 11:43:00,51.0,-99.9,-100.00,WSW,252,4.0,5.0,-999,-99.99,,,-99.99,,2013-03-13 18:43:00,
2013-03-13 11:52:00,54.0,-99.9,-100.00,North,351,2.0,5.0,-999,-99.99,,,-99.99,,2013-03-13 18:52:00,
2013-03-13 12:03:00,54.0,-99.9,-100.00,North,351,2.0,5.0,-999,-99.99,,,-99.99,,2013-03-13 19:03:00,
2013-03-13 12:20:00,56.0,-99.9,-100.00,WSW,255,3.0,6.0,-999,-99.99,,,-99.99,,2013-03-13 19:20:00,
2013-03-13 12:32:00,54.0,-99.9,-100.00,West,281,3.0,5.0,-999,-99.99,,,-99.99,,2013-03-13 19:32:00,
2013-03-13 12:43:00,54.0,-99.9,-100.00,West,281,3.0,5.0,-999,-99.99,,,-99.99,,2013-03-13 19:43:00,
2013-03-13 12:53:00,54.0,-99.9,-100.00,West,281,3.0,5.0,-999,-99.99,,,-99.99,,2013-03-13 19:53:00,
2013-03-13 13:00:00,58.0,-99.9,-100.00,WSW,256,2.0,4.0,-999,-99.99,,,-99.99,,2013-03-13 20:00:00,
2013-03-13 13:02:00,56.0,-99.9,-100.00,WSW,255,3.0,6.0,-999,-99.99,,,-99.99,,2013-03-13 20:02:00,
2013-03-13 13:13:00,56.0,-99.9,-100.00,WSW,255,3.0,6.0,-999,-99.99,,,-99.99,,2013-03-13 20:13:00,
2013-03-13 13:33:00,58.0,-99.9,-100.00,WSW,256,2.0,4.0,-999,-99.99,,,-99.99,,2013-03-13 20:33:00,
2013-03-13 13:42:00,58.0,-99.9,-100.00,WSW,256,2.0,4.0,-999,-99.99,,,-99.99,,2013-03-13 20:42:00,
2013-03-13 13:53:00,58.0,-99.9,-100.00,WSW,256,2.0,4.0,-999,-99.99,,,-99.99,,2013-03-13 20:53:00,
2013-03-13 14:10:00,60.0,-99.9,-100.00,WNW,298,4.0,5.0,-999,-99.99,,,-99.99,,2013-03-13 21:10:00,
2013-03-13 14:22:00,59.0,-99.9,-100.00,SSW,211,0.0,6.0,-999,-99.99,,,-99.99,,2013-03-13 21:22:00,
2013-03-13 14:34:00,58.0,-99.9,-100.00,WNW,298,2.0,5.0,-999,-99.99,,,-99.99,,2013-03-13 21:34:00,
2013-03-13 14:42:00,58.0,-99.9,-100.00,WNW,298,2.0,5.0,-999,-99.99,,,-99.99,,2013-03-13 21:42:00,
2013-03-13 14:52:00,60.0,-99.9,-100.00,WNW,298,4.0,5.0,-999,-99.99,,,-99.99,,2013-03-13 21:52:00,
2013-03-13 15:02:00,60.0,-99.9,-100.00,WNW,298,4.0,5.0,-999,-99.99,,,-99.99,,2013-03-13 22:02:00,
2013-03-13 15:20:00,65.0,-99.9,-100.00,NE,37,2.0,2.0,-999,-99.99,,,-99.99,,2013-03-13 22:20:00,
2013-03-13 15:33:00,61.0,-99.9,-100.00,NW,312,3.0,5.0,-999,-99.99,,,-99.99,,2013-03-13 22:33:00,
2013-03-13 15:43:00,61.0,-99.9,-100.00,NW,312,3.0,5.0,-999,-99.99,,,-99.99,,2013-03-13 22:43:00,
2013-03-13 15:53:00,61.0,-99.9,-100.00,NW,312,3.0,5.0,-999,-99.99,,,-99.99,,2013-03-13 22:53:00,
2013-03-13 16:00:00,65.0,-99.9,-100.00,NW,320,4.0,6.0,-999,-99.99,,,-99.99,,2013-03-13 23:00:00,
2013-03-13 16:03:00,65.0,-99.9,-100.00,NE,37,2.0,2.0,-999,-99.99,,,-99.99,,2013-03-13 23:03:00,
2013-03-13 16:13:00,65.0,-99.9,-100.00,NE,37,2.0,2.0,-999,-99.99,,,-99.99,,2013-03-13 23:13:00,
2013-03-13 16:32:00,65.0,-99.9,-100.00,NW,320,4.0,6.0,-999,-99.99,,,-99.99,,2013-03-13 23:32:00,
2013-03-13 16:43:00,65.0,-99.9,-100.00,NW,320,4.0,6.0,-999,-99.99,,,-99.99,,2013-03-13 23:43:00,
2013-03-13 16:52:00,65.0,-99.9,-100.00,NW,320,4.0,6.0,-999,-99.99,,,-99.99,,2013-03-13 23:52:00,
2013-03-13 17:00:00,64.0,-99.9,-100.00,West,278,6.0,7.0,-999,-99.99,,,-99.99,,2013-03-14 00:00:00,
2013-03-13 17:33:00,64.0,-99.9,-100.00,West,278,6.0,7.0,-999,-99.99,,,-99.99,,2013-03-14 00:33:00,
2013-03-13 17:43:00,64.0,-99.9,-100.00,West,278,6.0,7.0,-999,-99.99,,,-99.99,,2013-03-14 00:43:00,
2013-03-13 17:53:00,64.0,-99.9,-100.00,West,278,6.0,7.0,-999,-99.99,,,-99.99,,2013-03-14 00:53:00,
2013-03-13 18:20:00,64.0,-99.9,-100.00,WSW,253,2.0,6.0,-999,-99.99,,,-99.99,,2013-03-14 01:20:00,
2013-03-13 18:33:00,63.0,-99.9,-100.00,WSW,254,5.0,7.0,-999,-99.99,,,-99.99,,2013-03-14 01:33:00,
2013-03-13 18:42:00,63.0,-99.9,-100.00,WSW,254,5.0,7.0,-999,-99.99,,,-99.99,,2013-03-14 01:42:00,
2013-03-13 18:53:00,63.0,-99.9,-100.00,SW,230,5.0,8.0,-999,-99.99,,,-99.99,,2013-03-14 01:53:00,
2013-03-13 19:00:00,59.0,-99.9,-100.00,NW,314,6.0,6.0,-999,-99.99,,,-99.99,,2013-03-14 02:00:00,
2013-03-13 19:02:00,64.0,-99.9,-100.00,WSW,253,2.0,6.0,-999,-99.99,,,-99.99,,2013-03-14 02:02:00,
2013-03-13 19:12:00,64.0,-99.9,-100.00,WSW,253,2.0,6.0,-999,-99.99,,,-99.99,,2013-03-14 02:12:00,
2013-03-13 19:33:00,59.0,-99.9,-100.00,NW,314,6.0,6.0,-999,-99.99,,,-99.99,,2013-03-14 02:33:00,
2013-03-13 19:42:00,59.0,-99.9,-100.00,NW,314,6.0,6.0,-999,-99.99,,,-99.99,,2013-03-14 02:42:00,
2013-03-13 19:52:00,59.0,-99.9,-100.00,NW,314,6.0,6.0,-999,-99.99,,,-99.99,,2013-03-14 02:52:00,
2013-03-13 20:23:00,60.0,-99.9,-100.00,SW,235,3.0,3.0,-999,-99.99,,,-99.99,,2013-03-14 03:23:00,
2013-03-13 20:33:00,59.0,-99.9,-100.00,WSW,256,4.0,4.0,-999,-99.99,,,-99.99,,2013-03-14 03:33:00,
2013-03-13 20:43:00,59.0,-99.9,-100.00,WSW,256,4.0,4.0,-999,-99.99,,,-99.99,,2013-03-14 03:43:00,
2013-03-13 20:53:00,59.0,-99.9,-100.00,WSW,256,4.0,4.0,-999,-99.99,,,-99.99,,2013-03-14 03:53:00,
2013-03-13 21:00:00,57.0,-99.9,-100.00,SW,227,2.0,2.0,-999,-99.99,,,-99.99,,2013-03-14 04:00:00,
2013-03-13 21:33:00,57.0,-99.9,-100.00,SW,227,2.0,2.0,-999,-99.99,,,-99.99,,2013-03-14 04:33:00,
2013-03-13 21:42:00,57.0,-99.9,-100.00,SW,227,2.0,2.0,-999,-99.99,,,-99.99,,2013-03-14 04:42:00,
2013-03-13 21:53:00,57.0,-99.9,-100.00,SW,227,2.0,2.0,-999,-99.99,,,-99.99,,2013-03-14 04:53:00,
2013-03-13 22:00:00,53.0,-99.9,-100.00,SW,216,3.0,6.0,-999,-99.99,,,-99.99,,2013-03-14 05:00:00,
2013-03-13 22:22:00,55.0,-99.9,-100.00,WNW,283,4.0,6.0,-999,-99.99,,,-99.99,,2013-03-14 05:22:00,
2013-03-13 22:33:00,53.0,-99.9,-100.00,SW,216,3.0,6.0,-999,-99.99,,,-99.99,,2013-03-14 05:33:00,
2013-03-13 22:43:00,53.0,-99.9,-100.00,SW,216,3.0,6.0,-999,-99.99,,,-99.99,,2013-03-14 05:43:00,
2013-03-13 22:53:00,53.0,-99.9,-100.00,SW,216,3.0,6.0,-999,-99.99,,,-99.99,,2013-03-14 05:53:00,
2013-03-13 23:00:00,54.0,-99.9,-100.00,WSW,243,2.0,4.0,-999,-99.99,,,-99.99,,2013-03-14 06:00:00,
2013-03-13 23:22:00,54.0,-99.9,-100.00,West,261,2.0,4.0,-999,-99.99,,,-99.99,,2013-03-14 06:22:00,
2013-03-13 23:33:00,54.0,-99.9,-100.00,WSW,243,2.0,4.0,-999,-99.99,,,-99.99,,2013-03-14 06:33:00,
2013-03-13 23:42:00,54.0,-99.9,-100.00,WSW,243,2.0,4.0,-999,-99.99,,,-99.99,,2013-03-14 06:42:00,
2013-03-13 23:52:00,54.0,-99.9,-100.00,WSW,243,2.0,4.0,-999,-99.99,,,-99.99,,2013-03-14 06:52:00,